SL-14 DEB

Satellite information

Favourite Embed

Satellite Type and Status

DEBRISIN ORBIT

Key statistics

Satellite SL-14 DEB at a glance.

Uptime

13232

Days in orbit

Revolutions

≈ 13.0

Per day

Orbit

MEO

Medium Earth Orbit

Inclination

82.5

Latest

Satellite identification and parameters

Extended collection of information and parameters for SL-14 DEB.

Object identification

Identified? True

Debris? True

Object name: SL-14 DEB

International designator: 1989-080E

Object number (NORAD): 20129

Object ID (CCSDS): 20129

Country: COMMONWEALTH OF INDEPENDENT STATES (CIS)

Current information (Y/N): Y

RCS size: SMALL

Orbital parameters

Period: 111.034 minutes

Inclination: 82.4991 deg

SMA: 7652.374 km

Apoapsis: 2001.482 km

Periapsis: 546.997 km

RAAN: 189.1511 deg

Eccentricy: 0.0950349

Argument of periapsis: 82.6895 deg

Mean anomaly: 315.3048 deg

Mean motion: 12.96905869 rev/day

Mean motion (dot): 0.00002071 rev/day2

B* drag term: 0.00078345 1/REarth

Two-line elements (TLE)

Creation date: Dec. 19, 2025, 9:16 p.m.

Reference frame: TEME

Reference center: EARTH

Epoch: Dec. 19, 2025, 1:06 p.m. UTC

TLE line 0: 0 SL-14 DEB

TLE line 1: 1 20129U 89080E 25353.54608176 .00002071 00000-0 78345-3 0 9994

TLE line 2: 2 20129 82.4991 189.1511 0950349 82.6895 315.3048 12.96905869679273

Live tracking on map

Real-time ground track for satellite SL-14 DEB.

In-orbit conjunctions

A list of the most updated potential collisions computed for object SL-14 DEB.

Target Orbit TCA Probability of collision Miss distance Type
COSMOS 1233 LEO 2024-11-01 12:22:28 0.000867822 56.0 (m) PAYLOAD

Associated space launch

Scientific satellite studying the radiation properties of loop antennas in a plasma environment

SL-14 DEB was lifted into orbit during the mission ‘Tsiklon-3 | AUOS-Z-AV-IK 1’, on board a Tsiklon-3 space rocket.

The launch took place on Sept. 28, 1989, 12:04 a.m. from 32/2.

For more information about the launch, click the button.

Launch to space Tsiklon-3 | AUOS-Z-AV-IK 1
Tsiklon-3 | AUOS-Z-AV-IK 1

Agency: N/A

Status: Launch Successful

Launch date: Sept. 28, 1989, 12:04 a.m. UTC

Rocket: Tsiklon-3

Launch pad: 32/2

Location: Plesetsk Cosmodrome, Russian Federation

...

Latest news about this satellite

There are no fresh news available about this satellite. Check back as we update our databases every day.


Newsletter sign-up

Weekly statistics, charts and insights to help you stay on top of the space industry.